Location: Preissac
(48.4072°N, 78.3618°W)
Time: 00:01:17
(UTC-04:00)

ISS - Visible Passes

Search period start: 29 July 2021 00:00
Search period end: 08 August 2021 00:00
Orbit: 419 x 421 km, 51.6° (Epoch: 28 July)

Date Brightness Start Highest point End Pass type
(mag) Time Alt. Az. Time Alt. Az. Time Alt. Az.
29 Jul -3.4 21:48:37 10° WNW 21:51:56 53° SSW 21:54:48 13° SE visible
29 Jul -1.1 23:27:25 10° WSW 23:27:45 10° SW 23:27:45 10° SW visible
30 Jul -1.6 22:38:49 10° W 22:41:01 16° SW 22:42:08 14° SSW visible
31 Jul -2.1 21:51:03 10° W 21:53:51 24° SW 21:56:33 10° SSE visible
02 Aug -1.0 21:54:58 10° WSW 21:55:32 10° SW 21:56:07 10° SW visible
